Terug naar catalogus

DELTA 2 R/B

ActiefPO
NORAD 25637·ROCKET BODY·🇺🇸 United States

Gelanceerd Feb 23, 1999 vanaf Vandenberg Space Force Base

Loading…

Volgende Passages (komende 24 uur)

TLE

VersSource: Space-Track

Epoch: Sep 14, 2026, 21:38 UTC

1 25637U 99008D   26257.90189338  .00000233  00000-0  62070-4 0  9999
2 25637  96.4662 133.4366 0135910 324.5319  48.6600 14.49332003453757

Volg DELTA 2 R/B in realtime met AllMySat

Download on the App Store